Погода в Радехове

Украина / Львовская область     50°16′41″N   24°38′42″E
темп.,
°C
ветер,
м/с
пор.,
м/с
влажн.,
%
обл.,
%
осадки,
мм/ч
давл.,
гПа
погр.,
м
12 мая, ср
ср1200:00+11вюв411810 0.0 1015199
03:00+11вюв412925 0.0 1014225
06:00+10в411935 0.0 1013183
09:00+16вюв59770 0.0 1012458
12:00+19вюв897160 0.0 10121230
15:00+16юв796691 0.1 10121281
18:00+16вюв796013 0.0 10111498
21:00+11вюв814710 0.0 1011597
13 мая, чт
чт1300:00+8вюв511800 0.0 1010351
03:00+6вюв411870 0.0 1008263
06:00+6вюв412880 0.0 1007294
09:00+11юв710734 0.0 1005676
12:00+12ююв6879100 0.1 1004838
15:00+15юв577595 0.3 1002913
18:00+14ююв4987100 0.8 1001446
21:00+12ююв2497100 4.3 100299
14 мая, пт
пт1400:00+12ююв41094100 0.4 1002284
03:00+11ююз4119399 0.5 1002364
06:00+9ююз31094100 0.1 1003255
09:00+13юз61080100 0.1 1004871
12:00+15зюз6867100 0.1 10051350
15:00+16зюз686861 0.1 10061243
18:00+13з787893 0.1 1007911
21:00+11зюз4885100 0.1 1009414
15 мая, сб
сб1500:00+9зюз389197 0.0 1009280
03:00+10зюз3886100 0.0 1010318
06:00+7зюз239451 0.0 101050
09:00+13юз3577100 0.0 1011454
12:00+16зюз456684 0.4 10101161
15:00+17зюз346285 1.4 10101250
18:00+18зсз125954 0.6 10091200
21:00+13всв228193 0.8 101013
16 мая, вс
вс1600:00+11в348776 0.0 101045
03:00+10в348977 0.0 101051
06:00+9в359076 0.0 101073
09:00+14в5875100 0.0 1010322
12:00+18вюв5764100 0.2 1009984
15:00+14в2292100 5.1 100965
18:00+15всв388697 0.4 1007399
21:00+14вюв389287 1.5 1007167